Location: Bazugues
(43.4465°N, 0.3432°E)
Time: 09:50:00
(UTC+00:00)

Cosmos 304 Rocket - Pass Details

Date: 12 January 2026
Orbit: 669 x 676 km, 74.0° (Epoch: 11 February)

Event Time Altitude Azimuth Distance (km) Brightness Sun altitude
Rises 17:10:41 0° 343° (NNW) 3,037 7.0 -5.1°
Reaches altitude 10° 17:13:02 10° 347° (NNW) 2,117 6.2 -5.5°
Maximum altitude 17:17:43 57° 66° (ENE) 796 3.8 -6.2°
Drops below altitude 10° 17:22:22 10° 146° (SE) 2,098 6.2 -7.0°
Sets 17:24:41 0° 150° (SSE) 3,006 7.0 -7.4°
